SHIELDS 1

Last updated on Wed Oct 29 2025 00:03:53 GMT+0000 (Coordinated Universal Time)

1 43850U 18104B 25301.43927884 .00080969 00000+0 55276-3 0 9999 2 43850 85.0066 296.5494 0001953 34.4046 325.7350 15.74562352383509
UTC large
Height (km)
Speed (km/s)
/
Latitude / Longitude
Inclination (degrees)
Orbital Period (minutes)
Azimuth
Elevation
Range (km)
Doppler Factor

Next 0 passes for location: London (51.5072 / 0.1276)

Sorry there are no passes over London.